Location: Unspecified
(0.0000°N, 0.0000°E)
Time: 00:31:16
(UTC+00:00)

deb Kosmos-1275 - Visible Passes

Search period start: 18 May 2026 00:00
Search period end: 28 May 2026 00:00
Orbit: 913 x 1084 km, 83.0° (Epoch: 17 May)

Date Brightness Start Highest point End Pass type
(mag) Time Alt. Az. Time Alt. Az. Time Alt. Az.
21 May ? 21:15:01 10° NNW 21:15:06 10° NNW 21:15:06 10° NNW visible
23 May ? 20:33:56 10° N 20:35:16 17° N 20:35:16 17° N visible
24 May ? 21:06:33 10° NNW 21:08:00 17° NNW 21:08:00 17° NNW visible
25 May ? 19:53:31 10° NNE 19:55:34 20° NE 19:55:34 20° NE visible
26 May ? 20:25:11 10° N 20:28:21 33° N 20:28:21 33° N visible
27 May ? 19:14:07 10° NE 19:15:59 15° ENE 19:15:59 15° ENE visible
27 May ? 20:58:13 10° NNW 21:01:11 25° NW 21:01:11 25° NW visible
